TimeEST,TemperatureF,Dew PointF,Humidity,Sea Level PressureIn,VisibilityMPH,Wind Direction,Wind SpeedMPH,Gust SpeedMPH,PrecipitationIn,Events,Conditions,WindDirDegrees,DateUTC
12:15 AM,55.9,43.9,64,29.52,10.0,SSW,16.1,24.2,N/A,,Overcast,210,2012-11-23 05:15:00
12:36 AM,55.6,44.2,66,29.51,10.0,SW,12.7,33.4,N/A,,Overcast,220,2012-11-23 05:36:00
12:56 AM,55.4,44.6,67,29.50,10.0,SSW,13.8,24.2,N/A,,Overcast,210,2012-11-23 05:56:00
1:15 AM,55.0,44.8,68,29.49,10.0,SSW,11.5,20.7,N/A,,Overcast,210,2012-11-23 06:15:00
1:36 AM,54.7,45.0,70,29.48,10.0,SW,10.4,18.4,N/A,,Overcast,220,2012-11-23 06:36:00
1:56 AM,54.9,45.0,69,29.47,10.0,SSW,13.8,25.3,N/A,,Overcast,210,2012-11-23 06:56:00
2:16 AM,54.5,45.0,70,29.45,10.0,SSW,11.5,21.9,N/A,,Overcast,210,2012-11-23 07:16:00
2:36 AM,54.5,44.8,70,29.46,10.0,SW,11.5,21.9,N/A,,Overcast,220,2012-11-23 07:36:00
2:55 AM,53.8,44.6,71,29.46,10.0,SW,20.7,33.4,N/A,,Overcast,230,2012-11-23 07:55:00
3:16 AM,51.8,44.1,75,29.45,10.0,SW,16.1,27.6,N/A,,Overcast,230,2012-11-23 08:16:00
3:36 AM,50.9,43.0,74,29.45,10.0,SW,20.7,26.5,N/A,,Overcast,230,2012-11-23 08:36:00
3:55 AM,47.8,40.5,76,29.46,10.0,SW,24.2,36.8,N/A,,Overcast,230,2012-11-23 08:55:00
4:16 AM,46.4,38.8,75,29.46,10.0,SW,18.4,31.1,N/A,,Overcast,220,2012-11-23 09:16:00
4:36 AM,45.7,38.5,76,29.46,10.0,SW,18.4,29.9,N/A,,Overcast,220,2012-11-23 09:36:00
4:55 AM,45.0,38.3,77,29.46,10.0,SW,19.6,34.5,N/A,,Overcast,220,2012-11-23 09:55:00
5:16 AM,43.7,39.6,85,29.46,7.0,West,29.9,41.4,N/A,Rain,Light Rain,270,2012-11-23 10:16:00
5:36 AM,41.4,38.1,88,29.47,5.0,West,19.6,34.5,N/A,Rain,Light Rain,260,2012-11-23 10:36:00
5:56 AM,39.9,37.4,91,29.48,3.0,WSW,20.7,40.3,0.04,,Overcast,240,2012-11-23 10:56:00
6:16 AM,38.3,36.1,92,29.50,2.5,WSW,21.9,40.3,N/A,Rain,Light Rain,240,2012-11-23 11:16:00
6:36 AM,36.9,34.7,92,29.50,5.0,WSW,20.7,44.9,0.01,Rain,Light Rain,250,2012-11-23 11:36:00
6:56 AM,36.5,33.6,89,29.50,5.0,West,19.6,34.5,0.01,Rain,Light Rain,260,2012-11-23 11:56:00
7:16 AM,36.7,32.0,83,29.50,10.0,WSW,21.9,36.8,N/A,,Overcast,240,2012-11-23 12:16:00
7:35 AM,36.5,30.9,80,29.50,10.0,WSW,18.4,32.2,N/A,,Overcast,250,2012-11-23 12:35:00
7:56 AM,36.5,29.7,76,29.50,10.0,WSW,20.7,36.8,N/A,,Overcast,240,2012-11-23 12:56:00
8:16 AM,36.5,28.9,74,29.50,10.0,WSW,25.3,44.9,N/A,,Overcast,240,2012-11-23 13:16:00
8:35 AM,35.8,28.6,75,29.50,10.0,WSW,21.9,36.8,N/A,,Overcast,250,2012-11-23 13:35:00
8:56 AM,35.6,27.3,72,29.50,10.0,WSW,21.9,39.1,N/A,,Overcast,250,2012-11-23 13:56:00
9:16 AM,34.5,29.5,82,29.51,4.0,WSW,20.7,39.1,N/A,,Haze,250,2012-11-23 14:16:00
9:35 AM,33.8,31.3,90,29.50,4.0,WSW,20.7,29.9,N/A,Snow,Light Snow,240,2012-11-23 14:35:00
9:56 AM,34.3,30.9,87,29.50,10.0,WSW,18.4,31.1,N/A,,Overcast,250,2012-11-23 14:56:00
10:16 AM,33.3,30.4,89,29.51,1.5,West,27.6,35.7,N/A,Snow,Light Snow,270,2012-11-23 15:16:00
10:35 AM,32.4,30.7,94,29.51,1.5,West,19.6,28.8,N/A,Snow,Light Snow,260,2012-11-23 15:35:00
10:56 AM,34.0,27.7,78,29.50,10.0,West,26.5,36.8,N/A,,Overcast,260,2012-11-23 15:56:00
11:16 AM,34.2,26.4,73,29.50,10.0,West,28.8,38.0,N/A,,Mostly Cloudy,270,2012-11-23 16:16:00
11:35 AM,34.9,25.3,68,29.50,10.0,West,28.8,36.8,N/A,,Mostly Cloudy,270,2012-11-23 16:35:00
11:56 AM,33.4,24.3,69,29.50,10.0,West,28.8,43.7,N/A,,Overcast,260,2012-11-23 16:56:00
12:16 PM,32.9,25.2,73,29.49,10.0,West,29.9,42.6,N/A,,Overcast,270,2012-11-23 17:16:00
12:35 PM,33.8,26.2,74,29.49,10.0,West,26.5,38.0,N/A,,Overcast,260,2012-11-23 17:35:00
1:16 PM,32.4,28.2,85,29.50,2.5,WNW,21.9,34.5,N/A,Snow,Light Snow,290,2012-11-23 18:16:00
1:35 PM,32.2,24.8,74,29.50,10.0,West,25.3,35.7,N/A,,Overcast,280,2012-11-23 18:35:00
1:56 PM,32.0,24.6,74,29.51,10.0,WNW,24.2,42.6,N/A,,Overcast,290,2012-11-23 18:56:00
2:16 PM,30.7,27.7,88,29.52,0.8,West,21.9,28.8,N/A,Snow,Light Snow,280,2012-11-23 19:16:00
2:35 PM,30.9,25.5,80,29.53,2.0,WNW,23.0,36.8,N/A,Snow,Light Snow,300,2012-11-23 19:35:00
2:56 PM,30.2,25.0,81,29.54,3.0,WNW,25.3,40.3,N/A,Snow,Light Snow,290,2012-11-23 19:56:00
3:16 PM,29.7,26.1,86,29.56,0.8,WNW,24.2,35.7,N/A,Snow,Light Snow,290,2012-11-23 20:16:00
3:35 PM,29.3,26.6,90,29.58,0.5,WNW,23.0,31.1,N/A,Snow,Snow,300,2012-11-23 20:35:00
3:56 PM,29.3,27.0,91,29.60,0.5,WNW,20.7,36.8,N/A,Snow,Snow,290,2012-11-23 20:56:00
4:16 PM,29.1,27.1,92,29.63,0.2,NW,17.3,26.5,N/A,Snow,Heavy Snow,310,2012-11-23 21:16:00
4:35 PM,28.8,27.0,93,29.66,0.2,NNW,28.8,39.1,0.01,Snow,Heavy Snow,330,2012-11-23 21:35:00
4:56 PM,28.0,26.6,94,29.68,0.2,NNW,18.4,32.2,0.02,Snow,Heavy Snow,340,2012-11-23 21:56:00
5:16 PM,29.1,26.4,90,29.70,1.2,NW,19.6,31.1,N/A,Snow,Light Snow,310,2012-11-23 22:16:00
5:35 PM,29.3,25.3,85,29.72,3.0,NW,21.9,32.2,0.04,Snow,Light Snow,310,2012-11-23 22:35:00
5:56 PM,29.3,26.4,89,29.74,4.0,WNW,20.7,28.8,0.05,Snow,Light Snow,300,2012-11-23 22:56:00
6:16 PM,29.7,25.7,85,29.76,4.0,WNW,23.0,34.5,0.01,Snow,Light Snow,300,2012-11-23 23:16:00
6:35 PM,29.3,24.6,83,29.78,7.0,NW,21.9,36.8,0.01,Snow,Light Snow,310,2012-11-23 23:35:00
6:56 PM,29.3,24.4,82,29.80,10.0,WNW,20.7,34.5,0.02,,Overcast,300,2012-11-23 23:56:00
7:15 PM,29.3,24.4,82,29.81,7.0,NW,19.6,33.4,N/A,,Overcast,320,2012-11-24 00:15:00
7:36 PM,29.3,24.4,82,29.81,10.0,NW,18.4,29.9,N/A,,Mostly Cloudy,320,2012-11-24 00:36:00
7:56 PM,29.3,24.3,81,29.83,10.0,NW,19.6,27.6,N/A,,Mostly Cloudy,320,2012-11-24 00:56:00
8:15 PM,28.9,24.6,84,29.83,10.0,NW,16.1,25.3,N/A,,Overcast,310,2012-11-24 01:15:00
8:36 PM,28.6,25.3,88,29.84,4.0,NW,18.4,23.0,N/A,Snow,Light Snow,310,2012-11-24 01:36:00
8:56 PM,28.8,25.2,86,29.85,4.0,WNW,16.1,24.2,N/A,Snow,Light Snow,300,2012-11-24 01:56:00
9:15 PM,28.4,25.5,89,29.85,3.0,NW,18.4,27.6,N/A,Snow,Light Snow,320,2012-11-24 02:15:00
9:36 PM,28.2,25.3,89,29.86,3.0,NW,13.8,24.2,N/A,Snow,Light Snow,320,2012-11-24 02:36:00
9:56 PM,28.4,24.6,86,29.86,5.0,NW,16.1,31.1,N/A,,Overcast,320,2012-11-24 02:56:00
10:15 PM,28.2,23.9,84,29.86,10.0,NW,18.4,26.5,N/A,,Mostly Cloudy,320,2012-11-24 03:15:00
10:36 PM,28.0,22.6,80,29.87,10.0,NNW,21.9,29.9,N/A,,Scattered Clouds,330,2012-11-24 03:36:00
10:56 PM,27.9,22.6,81,29.87,10.0,NNW,19.6,29.9,N/A,,Scattered Clouds,330,2012-11-24 03:56:00
11:15 PM,28.0,23.0,81,29.89,10.0,NW,15.0,24.2,N/A,,Mostly Cloudy,310,2012-11-24 04:15:00
11:56 PM,27.5,22.5,81,29.90,10.0,NW,13.8,24.2,N/A,,Mostly Cloudy,310,2012-11-24 04:56:00